Regional Weather Roundup
Issued by NWS Midland/Odessa, TX

Skip options and go directly to product.
Home | Oldest Version | Previous Version | Current Version | All | Graphics & Text | Save Text | Print | Product List | Glossary On

Skip product version selection by date and time.   
834
ASUS44 KMAF 281410
RWRMAF
MIDLAND AREA WEATHER ROUNDUP
NATIONAL WEATHER SERVICE MIDLAND TX
900 AM CDT THU JUL 28 2016

...IN SOUTHWEST TEXAS AND SOUTHEAST NEW MEXICO...

CITY           SKY/WX    TMP DP  RH WIND       PRES   REMARKS
ALPINE         SUNNY     73  58  60 CALM      30.20R
ANDREWS        FAIR      75  67  74 CALM      30.11S
ARTESIA        SUNNY     75  61  60 N9        30.14R
BIG SPRING     SUNNY     78  66  66 S3        30.11R
CARLSBAD       SUNNY     76  61  59 N9        30.10R
DRYDEN           N/A     75  71  87 NE9       30.03R
FORT STOCKTON  SUNNY     75  65  70 SE12      30.07R
GUAD PASS      SUNNY     74  56  53 NE17      30.23R
HOBBS          SUNNY     73  61  64 N7        30.15R
MARFA          SUNNY     75  61  61 NE5       30.17S
MIDLAND AIRPK  SUNNY     79  65  62 S7        30.10R
MIDLAND INTL   SUNNY     78  66  66 SE8       30.09R
ODESSA         SUNNY     78  64  61 S9        30.10R
PECOS          SUNNY     78  65  63 E10       30.05R
PRESIDIO       FAIR      81  65  59 N13       30.03R
SEMINOLE       CLOUDY    76  62  61 NW5       30.13R
SNYDER           N/A     77  69  75 S5        30.09R
WINK           SUNNY     78  66  66 E9        30.06R
$$
...OTHER STATIONS IN TEXAS...

CITY           SKY/WX    TMP DP  RH WIND       PRES   REMARKS
ABILENE        SUNNY     79  69  71 SW9       30.07R
AMARILLO       SUNNY     70  61  73 NE10      30.17F
AUSTIN         PTSUNNY   79  76  90 S3        30.02R
BROWNSVILLE    SUNNY     87  77  72 SE18      29.96R
CORPUS CHRISTI CLOUDY    85  78  80 S10       29.99R
DALLAS FTW     CLOUDY    82  71  69 S12       30.00R
DEL RIO        CLOUDY    79  72  79 SE8       29.99R
EL PASO        MOSUNNY   77  59  53 N7        30.10R
HOUSTON INT    CLOUDY    84  78  82 S5        30.01S
LUBBOCK        MOSUNNY   77  61  57 N9        30.14R
SAN ANGELO     MOSUNNY   78  69  73 S8        30.07R
SAN ANTONIO    PTSUNNY   80  75  84 S9        30.03R
WACO           CLOUDY    80  73  79 S10       30.02R
WICHITA FALLS  NOT AVBL
$$
...OTHER LOCATIONS IN NEW MEXICO...

CITY           SKY/WX    TMP DP  RH WIND       PRES   REMARKS
ALAMAGORDO     SUNNY     75  55  50 CALM      30.14R
ALBUQUERQUE    MOSUNNY   73  55  53 N6        30.26R
CANNON AFB     SUNNY     70  59  68 NE10      30.21R
CLOVIS         SUNNY     70  55  60 NE8       30.21S
HOLLOMAN AFB   SUNNY     77  57  50 N3        30.12R
ROSWELL        SUNNY     75  59  57 NE7       30.14R
RUIDOSO          N/A     64  54  68 CALM      30.35F
SANTA FE       SUNNY     67  51  56 N3        30.33R
TRUTH OR CONSE SUNNY     72  56  57 NW3       30.19R
TUCUMCARI      SUNNY     70  58  65 S6        30.19R
$$

USA.gov is the U.S. government's official web portal to all federal, state and local government web resources and services.